User: anonymous   Login
Location: Pine Mountain Observatory
(43.7910°N, 120.9377°W)
Time: 08:26:14
(UTC-07:00)
Language:

Cosmos 1076 Rocket - Orbit

View from above orbital plane
View from above orbital plane
View from above satellite
View from above satellite

Ground track
Ground track

The orbit data is extracted from the following two-line orbital elements,

1 11267U 79011B   16274.13576040  .00000205  00000-0  19232-4 0  9999
2 11267  82.5227 114.9950 0017424  19.6520 340.5366 14.88787918 36776
Epoch (UTC): 30 September 2016 03:15:29
Eccentricity: 0.0017424
inclination: 82.5227°
perigee height: 589 km
apogee height: 614 km
right ascension of ascending node: 114.9950°
argument of perigee: 19.6520°
revolutions per day: 14.88787918
mean anomaly at epoch: 340.5366°
orbit number at epoch: 3677

The dashed part of the orbit path shows where the satellite is in the earth's shadow,  

DLR